TimeCDT,TemperatureF,Dew PointF,Humidity,Sea Level PressureIn,VisibilityMPH,Wind Direction,Wind SpeedMPH,Gust SpeedMPH,PrecipitationIn,Events,Conditions,WindDirDegrees,DateUTC
12:03 AM,51.8,51.8,100,29.98,2.5,WNW,3.5,-,N/A,,Overcast,300,2013-04-28 05:03:00
12:10 AM,51.8,51.8,100,29.98,2.5,NW,6.9,-,0.01,Rain,Light Rain,320,2013-04-28 05:10:00
12:20 AM,51.8,51.8,100,29.98,6.0,NW,4.6,-,0.01,Rain,Light Rain,320,2013-04-28 05:20:00
12:39 AM,51.8,50.0,94,29.98,10.0,NW,5.8,-,0.01,,Overcast,310,2013-04-28 05:39:00
12:53 AM,52.0,50.0,93,29.98,10.0,NW,4.6,-,0.01,,Overcast,310,2013-04-28 05:53:00
1:09 AM,51.8,50.0,94,29.98,10.0,WNW,3.5,-,N/A,,Overcast,300,2013-04-28 06:09:00
1:18 AM,51.8,50.0,94,29.98,10.0,WNW,4.6,-,N/A,,Overcast,300,2013-04-28 06:18:00
1:53 AM,51.1,48.9,92,29.96,10.0,WNW,3.5,-,N/A,,Overcast,300,2013-04-28 06:53:00
2:05 AM,51.8,48.2,88,29.97,10.0,WNW,4.6,-,N/A,,Overcast,300,2013-04-28 07:05:00
2:12 AM,51.8,48.2,88,29.96,10.0,WNW,6.9,-,N/A,,Overcast,300,2013-04-28 07:12:00
2:23 AM,51.8,48.2,88,29.96,10.0,WNW,5.8,-,N/A,,Overcast,290,2013-04-28 07:23:00
2:53 AM,51.1,48.9,92,29.96,10.0,WNW,5.8,-,N/A,,Overcast,300,2013-04-28 07:53:00
3:53 AM,50.0,48.9,96,29.96,10.0,West,5.8,-,N/A,,Overcast,280,2013-04-28 08:53:00
4:31 AM,50.0,48.2,94,29.96,10.0,WNW,6.9,-,N/A,,Overcast,290,2013-04-28 09:31:00
4:41 AM,50.0,48.2,94,29.96,10.0,WNW,5.8,-,N/A,,Overcast,290,2013-04-28 09:41:00
4:51 AM,50.0,48.2,94,29.96,10.0,West,6.9,-,N/A,,Overcast,280,2013-04-28 09:51:00
4:53 AM,50.0,48.0,93,29.95,10.0,WNW,6.9,-,N/A,,Overcast,290,2013-04-28 09:53:00
5:53 AM,50.0,48.0,93,29.96,10.0,WNW,6.9,-,N/A,,Overcast,290,2013-04-28 10:53:00
6:03 AM,50.0,48.2,94,29.97,10.0,WNW,5.8,-,N/A,,Overcast,290,2013-04-28 11:03:00
6:53 AM,50.0,48.0,93,29.98,10.0,NW,9.2,-,N/A,,Overcast,310,2013-04-28 11:53:00
7:37 AM,50.0,46.4,87,30.01,8.0,Calm,Calm,-,N/A,,Overcast,0,2013-04-28 12:37:00
8:21 AM,50.0,48.2,94,30.01,10.0,West,8.1,-,N/A,,Overcast,280,2013-04-28 13:21:00
8:53 AM,53.1,48.9,86,30.00,10.0,NW,11.5,-,N/A,,Mostly Cloudy,320,2013-04-28 13:53:00
9:22 AM,53.6,46.4,77,30.01,10.0,NW,12.7,-,N/A,,Overcast,310,2013-04-28 14:22:00
9:53 AM,53.1,46.9,80,30.01,10.0,WNW,9.2,-,N/A,,Overcast,300,2013-04-28 14:53:00
10:34 AM,53.6,48.2,82,30.02,10.0,NW,6.9,-,N/A,,Overcast,310,2013-04-28 15:34:00
10:53 AM,53.1,46.9,80,30.02,10.0,NW,10.4,-,N/A,,Overcast,320,2013-04-28 15:53:00
11:24 AM,53.6,46.4,77,30.02,10.0,NW,8.1,-,N/A,,Overcast,320,2013-04-28 16:24:00
11:53 AM,53.1,46.9,80,30.02,10.0,NNW,8.1,-,N/A,,Overcast,340,2013-04-28 16:53:00
12:53 PM,55.0,48.0,77,29.99,10.0,NNW,6.9,-,N/A,,Overcast,340,2013-04-28 17:53:00
1:51 PM,57.2,48.2,72,29.99,10.0,NW,5.8,-,N/A,,Overcast,310,2013-04-28 18:51:00
1:53 PM,55.9,48.9,77,29.98,10.0,West,3.5,-,N/A,,Overcast,270,2013-04-28 18:53:00
2:53 PM,59.0,48.0,67,29.97,10.0,Calm,Calm,-,N/A,,Mostly Cloudy,0,2013-04-28 19:53:00
3:03 PM,60.8,50.0,68,29.98,10.0,Variable,4.6,-,N/A,,Partly Cloudy,0,2013-04-28 20:03:00
3:18 PM,60.8,50.0,68,29.97,10.0,North,4.6,-,N/A,,Mostly Cloudy,350,2013-04-28 20:18:00
3:25 PM,60.8,48.2,63,29.97,10.0,Calm,Calm,-,N/A,,Partly Cloudy,0,2013-04-28 20:25:00
3:53 PM,61.0,50.0,67,29.95,10.0,Calm,Calm,-,N/A,,Partly Cloudy,0,2013-04-28 20:53:00
4:53 PM,64.0,50.0,60,29.94,10.0,Calm,Calm,-,N/A,,Clear,0,2013-04-28 21:53:00
5:53 PM,64.9,48.9,56,29.92,10.0,Calm,Calm,-,N/A,,Clear,0,2013-04-28 22:53:00
6:53 PM,64.0,48.9,58,29.92,10.0,SSE,5.8,-,N/A,,Clear,160,2013-04-28 23:53:00
7:53 PM,60.1,48.9,67,29.92,10.0,SE,4.6,-,N/A,,Clear,140,2013-04-29 00:53:00
8:53 PM,57.0,48.9,74,29.93,10.0,SSE,3.5,-,N/A,,Clear,160,2013-04-29 01:53:00
9:53 PM,55.0,48.0,77,29.94,10.0,South,5.8,-,N/A,,Clear,180,2013-04-29 02:53:00
10:53 PM,54.0,48.9,83,29.95,10.0,South,5.8,-,N/A,,Clear,190,2013-04-29 03:53:00
11:53 PM,53.1,48.0,83,29.94,10.0,South,3.5,-,N/A,,Clear,180,2013-04-29 04:53:00